Location: Misciano
(43.5000°N, 11.9500°E)
Time: 05:00:28
(UTC+00:00)

BREEZE-M DEB (TANK) - Pass Details

Date: 13 August 2020
Orbit: 320 x 16292 km, 49.4° (Epoch: 23 September)

Event Time Altitude Azimuth Distance (km) Brightness Sun altitude
Rises 18:44:22 0° 257° (WSW) 2,088 6.2 -5.2°
Reaches altitude 10° 18:46:01 10° 263° (W) 1,234 5.2 -5.5°
Maximum altitude 18:48:12 51° 343° (NNW) 494 2.4 -5.9°
Drops below altitude 10° 18:51:55 10° 61° (ENE) 2,093 4.9 -6.5°
Sets 18:55:44 0° 66° (ENE) 4,013 6.3 -7.1°
